[TLELIST] Archives

 

Current TLEs

November 1st 2006 PDT

HST 1 20580U 90037B 06303.95453244 +.00000474 +00000-0 +24043-4 0 07532 2 20580 028.4692 244.7971 0004001 184.6559 175.3991 15.00119125705502 ISS (ZARYA) 1 25544U 98067A 06305.19283169 .00019980 00000-0 12079-3 0 9699 2 25544 051.6349 201.4842 0012588 159.7273 337.3659 15.77517852454770 CXO 1 25867U 99040B 06305.20833333 +.00000504 +00000-0 +00000-0 0 09954 2 25867 060.5236 094.1198 5939762 288.2068 352.6112 00.37807576001395 ____________________________________________________________________ These 2-Line ...Continue Reading

Current TLEs

October 31st 2006 PDT

HST 1 20580U 90037B 06304.22065410 .00000507 00000-0 26679-4 0 7306 2 20580 028.4690 243.0609 0003985 186.4751 173.5787 15.00119546705548 ISS (ZARYA) 1 25544U 98067A 06304.37303241 .00019557 00000-0 11852-3 0 9656 2 25544 051.6345 205.7152 0012464 156.6953 001.6043 15.77483317454643 CXO 1 25867U 99040B 06302.58333333 +.00000508 +00000-0 +00000-0 0 09940 2 25867 060.5054 094.1721 5934932 288.2335 355.2895 00.37804373001384 ____________________________________________________________________ These 2-Line ...Continue Reading

Current TLEs

October 30th 2006 PDT

HST 1 20580U 90037B 06302.89004429 .00000452 00000-0 22341-4 0 7299 2 20580 028.4694 251.7365 0004017 174.2834 185.7801 15.00118360705344 ISS (ZARYA) 1 25544U 98067A 06303.35671296 .00024170 00000-0 14564-3 0 9606 2 25544 051.6341 210.9647 0012759 152.6540 350.1966 15.77448757454488 CXO 1 25867U 99040B 06302.58333333 +.00000508 +00000-0 +00000-0 0 09940 2 25867 060.5054 094.1721 5934932 288.2335 355.2895 00.37804373001384 ____________________________________________________________________ These 2-Line ...Continue Reading

Current TLEs

October 29th 2006 PDT

HST 1 20580U 90037B 06301.22678017 .00000457 00000-0 22714-4 0 7283 2 20580 028.4696 262.5777 0004008 156.8589 203.2178 15.00117464705095 ISS (ZARYA) 1 25544U 98067A 06302.50810185 .00022026 00000-0 13334-3 0 9549 2 25544 051.6342 215.3409 0012316 149.8405 210.7287 15.77416203454355 CXO 1 25867U 99040B 06299.95833333 +.00000503 +00000-0 +00000-0 0 09935 2 25867 060.4908 094.2197 5930348 288.2863 357.9157 00.37804131001373 ____________________________________________________________________ These 2-Line ...Continue Reading

Current TLEs

October 28th 2006 PDT

HST 1 20580U 90037B 06301.22678017 .00000457 00000-0 22714-4 0 7283 2 20580 028.4696 262.5777 0004008 156.8589 203.2178 15.00117464705095 ISS (ZARYA) 1 25544U 98067A 06301.32077704 .00016537 00000-0 10140-3 0 9496 2 25544 051.6340 221.4733 0012658 145.2836 308.3995 15.77360347454164 CXO 1 25867U 99040B 06299.95833333 +.00000503 +00000-0 +00000-0 0 09935 2 25867 060.4908 094.2197 5930348 288.2863 357.9157 00.37804131001373 ____________________________________________________________________ These 2-Line ...Continue Reading

Current TLEs

October 27th 2006 PDT

HST 1 20580U 90037B 06298.36596241 +.00000446 +00000-0 +21886-4 0 07312 2 20580 028.4698 281.2264 0003888 129.4972 230.5962 15.00115749704663 ISS (ZARYA) 1 25544U 98067A 06300.44375000 .00033617 00000-0 20178-3 0 9432 2 25544 051.6340 225.9999 0012397 141.4685 008.7018 15.77342491454029 CXO 1 25867U 99040B 06299.95833333 +.00000503 +00000-0 +00000-0 0 09935 2 25867 060.4908 094.2197 5930348 288.2863 357.9157 00.37804131001373 ____________________________________________________________________ These 2-Line ...Continue Reading

Current TLEs

October 27th 2006 PDT

HST 1 20580U 90037B 06299.36392292 .00000459 00000-0 22878-4 0 7274 2 20580 028.4698 274.7211 0003993 138.0742 222.0155 15.00116420704814 ISS (ZARYA) 1 25544U 98067A 06299.30111487 .00018284 00000-0 11213-3 0 9333 2 25544 051.6344 231.8930 0012635 137.6567 359.9187 15.77266671453847 CXO 1 25867U 99040B 06297.33333333 +.00000492 +00000-0 +00000-0 0 09926 2 25867 060.4755 094.2572 5926122 288.3582 000.5147 00.37804317001369 ____________________________________________________________________ These 2-Line ...Continue Reading

Current TLEs

October 25th 2006 PDT

HST 1 20580U 90037B 06298.23290108 .00000440 00000-0 21456-4 0 7262 2 20580 028.4698 282.0942 0003872 128.3684 231.7252 15.00115628704645 ISS (ZARYA) 1 25544U 98067A 06298.48020833 .00017459 00000-0 10741-3 0 9254 2 25544 051.6361 236.1315 0012720 134.1721 019.0564 15.77234495453718 CXO 1 25867U 99040B 06297.33333333 +.00000492 +00000-0 +00000-0 0 09926 2 25867 060.4755 094.2572 5926122 288.3582 000.5147 00.37804317001369 ____________________________________________________________________ These 2-Line ...Continue Reading

Current TLEs

October 24th 2006 PDT

HST 1 20580U 90037B 06296.43657124 .00000425 00000-0 20255-4 0 7255 2 20580 028.4699 293.8042 0003764 110.5771 249.5221 15.00114499704375 ISS (ZARYA) 1 25544U 98067A 06297.45797574 .00017353 00000-0 10695-3 0 9175 2 25544 051.6346 241.4066 0012811 130.5873 334.5010 15.77197120453558 CXO 1 25867U 99040B 06294.66666667 +.00000456 +00000-0 +00000-0 0 09917 2 25867 060.4581 094.2928 5923118 288.4328 357.4216 00.37805187001358 ____________________________________________________________________ These 2-Line ...Continue Reading

Current TLEs

October 23rd 2006 PDT

HST 1 20580U 90037B 06294.44064713 +.00000468 +00000-0 +23618-4 0 07411 2 20580 028.4694 306.8188 0003685 088.3756 271.7254 15.00113831704072 ISS (ZARYA) 1 25544U 98067A 06296.45023148 .00021813 00000-0 13352-3 0 9127 2 25544 051.6339 246.6042 0012958 128.1890 011.2173 15.77162573453390 CXO 1 25867U 99040B 06294.66666667 +.00000456 +00000-0 +00000-0 0 09917 2 25867 060.4581 094.2928 5923118 288.4328 357.4216 00.37805187001358 ____________________________________________________________________ These 2-Line ...Continue Reading
  • This mailing list is a public mailing list - anyone may join or leave, at any time.
  • This mailing list is announce-only.

International Space Station (ISS) / Hubble Space Telescope (HST) / Chandra X-Ray Observatory Orbital Data via EMAIL

Privacy Policy:

Private list